Location: Saratoga Springs
(43.0831°N, 73.7850°W)
Time: 11:05:47
(UTC-04:00)

SR - Pass Details

Date: 21 April 2024
Orbit: 579 x 859 km, 66.7° (Epoch: 27 May)

Event Time Altitude Azimuth Distance (km) Brightness Sun altitude
Exits shadow 01:41:53 25° 67° (ENE) 1,519 ? -33.8°
Drops below altitude 10° 01:44:23 10° 47° (NE) 2,279 ? -33.7°
Sets 01:46:49 0° 39° (NE) 3,160 ? -33.6°
